Location: Friaudour
(46.0460°N, 1.2873°E)
Time: 10:49:23
(UTC+00:00)

ATLAS 5 CENTAUR R/B - Pass Details

Date: 14 July 2020
Orbit: 534 x 1124 km, 63.4° (Epoch: 30 July)

Event Time Altitude Azimuth Distance (km) Brightness Sun altitude
Rises 01:33:47 0° 324° (NW) 3,203 5.6 -19.1°
Reaches altitude 10° 01:36:12 10° 332° (NNW) 2,366 5.0 -19.0°
Maximum altitude 01:41:22 39° 41° (NE) 1,304 3.7 -18.6°
Drops below altitude 10° 01:47:19 10° 109° (ESE) 2,739 4.9 -18.1°
Sets 01:50:17 0° 117° (ESE) 3,768 5.6 -17.9°
